Thompson, Ohio, United States (44086)
Lat: 41.69N, Lon: 81.05W
Wx Zone: OHZ013
Local Info
Past Weather Observations for Monday, December 15, 2014

NOTE: This archive is for the closest National Weather Service station to Thompson. Information may differ from the station used for current weather conditions.

Click here for Long-term Archive

Time Weather Temperature Dewpoint Humidity Pressure Winds Precip Visibility
23:53
Mostly Cloudy
43°F / 6°C 39°F / 4°C 87% 29.89 in
(1012 mb)
SE 5.8 mph
(SE 9 kph)
- 10SM
23:39
Overcast
45°F / 7°C 39°F / 4°C 81% 29.89 in
(1012 mb)
SSE 6.9 mph
(SSE 11 kph)
- 10SM
22:53
Overcast
45°F / 7°C 39°F / 4°C 81% 29.92 in
(1013 mb)
SE 8.1 mph
(SE 13 kph)
- 10SM
21:53
Overcast
45°F / 7°C 39°F / 4°C 81% 29.95 in
(1014 mb)
SSE 10.4 mph
(SSE 17 kph)
- 10SM
20:53
Overcast
45°F / 7°C 41°F / 5°C 87% 29.95 in
(1014 mb)
SE 8.1 mph
(SE 13 kph)
- 10SM
19:53
Overcast
45°F / 7°C 41°F / 5°C 87% 29.95 in
(1014 mb)
SE 6.9 mph
(SE 11 kph)
- 10SM
18:53
Overcast
45°F / 7°C 43°F / 6°C 93% 29.98 in
(1015 mb)
ESE 6.9 mph
(ESE 11 kph)
- 7SM
18:50
Overcast
45°F / 7°C 43°F / 6°C 93% 29.98 in
(1015 mb)
ESE 6.9 mph
(ESE 11 kph)
- 7SM
18:09
Overcast
45°F / 7°C 43°F / 6°C 93% 30.01 in
(1016 mb)
SSE 3.5 mph
(SSE 6 kph)
- 8SM
17:53
Overcast
45°F / 7°C 43°F / 6°C 93% 30.01 in
(1016 mb)
SSE 5.8 mph
(SSE 9 kph)
- 8SM
16:53
Overcast
45°F / 7°C 43°F / 6°C 93% 30.01 in
(1016 mb)
SE 5.8 mph
(SE 9 kph)
- 7SM
15:53
Overcast
Fog And Mist
45°F / 7°C 43°F / 6°C 93% 30.01 in
(1016 mb)
SE 8.1 mph
(SE 13 kph)
- 6SM
14:53
Overcast
46°F / 8°C 43°F / 6°C 87% 30.01 in
(1016 mb)
S 5.8 mph
(S 9 kph)
- 9SM
13:53
Overcast
46°F / 8°C 45°F / 7°C 93% 30.01 in
(1016 mb)
Calm - 7SM
13:01
Overcast
Fog And Mist
46°F / 8°C 45°F / 7°C 93% 30.04 in
(1017 mb)
S 6.9 mph
(S 11 kph)
- 5SM
12:53
Overcast
Fog And Mist
46°F / 8°C 45°F / 7°C 93% 30.04 in
(1017 mb)
SSE 5.8 mph
(SSE 9 kph)
- 4SM
12:16
Overcast
Fog And Mist
46°F / 8°C 45°F / 7°C 93% 30.04 in
(1017 mb)
Variable 3.5 mph
(Variable 6 kph)
- 4SM
11:53
Overcast
Fog And Mist
45°F / 7°C 45°F / 7°C 100% 30.06 in
(1018 mb)
SSE 5.8 mph
(SSE 9 kph)
- 3SM
10:53
Overcast
Fog And Mist
45°F / 7°C 45°F / 7°C 100% 30.09 in
(1019 mb)
S 4.6 mph
(S 7 kph)
- 2 1/2SM
10:38
Overcast
Fog And Mist
45°F / 7°C 45°F / 7°C 100% 30.09 in
(1019 mb)
SSE 4.6 mph
(SSE 7 kph)
- 2 1/2SM
10:24
Overcast
Fog And Mist
45°F / 7°C 43°F / 6°C 93% 30.09 in
(1019 mb)
S 4.6 mph
(S 7 kph)
- 3SM
09:53
Overcast
Fog And Mist
45°F / 7°C 43°F / 6°C 93% 30.09 in
(1019 mb)
S 4.6 mph
(S 7 kph)
- 2 1/2SM
09:43
Overcast
Fog And Mist
43°F / 6°C 43°F / 6°C 100% 30.09 in
(1019 mb)
S 5.8 mph
(S 9 kph)
- 2 1/2SM
09:29
Overcast
Fog And Mist
43°F / 6°C 43°F / 6°C 100% 30.09 in
(1019 mb)
S 5.8 mph
(S 9 kph)
- 3SM
08:53
Overcast
Fog And Mist
43°F / 6°C 41°F / 5°C 93% 30.09 in
(1019 mb)
Calm - 2SM
07:53
Overcast
Fog And Mist
41°F / 5°C 39°F / 4°C 93% 30.09 in
(1019 mb)
S 3.5 mph
(S 6 kph)
- 1 1/4SM
07:45
Overcast
Fog And Mist
41°F / 5°C 39°F / 4°C 93% 30.09 in
(1019 mb)
SSE 3.5 mph
(SSE 6 kph)
- 1 1/4SM
07:34
Overcast
Fog And Mist
41°F / 5°C 39°F / 4°C 93% 30.09 in
(1019 mb)
Calm - 1SM
07:13
Overcast
Fog And Mist
41°F / 5°C 39°F / 4°C 93% 30.09 in
(1019 mb)
SSE 3.5 mph
(SSE 6 kph)
- 1 1/4SM
06:53
Overcast
Fog And Mist
39°F / 4°C 39°F / 4°C 100% 30.09 in
(1019 mb)
SSE 4.6 mph
(SSE 7 kph)
- 1SM
06:23
Overcast
Fog And Mist
39°F / 4°C 39°F / 4°C 100% 30.09 in
(1019 mb)
Calm - 1SM
06:15
Overcast
Fog And Mist
39°F / 4°C 39°F / 4°C 100% 30.09 in
(1019 mb)
SSE 4.6 mph
(SSE 7 kph)
- 3/4SM
06:07
Overcast
Fog And Mist
39°F / 4°C 39°F / 4°C 100% 30.09 in
(1019 mb)
S 4.6 mph
(S 7 kph)
- 1SM
05:53
Overcast
Fog And Mist
39°F / 4°C 39°F / 4°C 100% 30.09 in
(1019 mb)
S 3.5 mph
(S 6 kph)
- 3/4SM
05:36
Overcast
Fog And Mist
39°F / 4°C 39°F / 4°C 100% 30.09 in
(1019 mb)
S 3.5 mph
(S 6 kph)
- 1SM
04:59
Overcast
Fog And Mist
39°F / 4°C 39°F / 4°C 100% 30.09 in
(1019 mb)
S 4.6 mph
(S 7 kph)
- 1 3/4SM
04:53
Overcast
Fog And Mist
39°F / 4°C 39°F / 4°C 100% 30.09 in
(1019 mb)
S 5.8 mph
(S 9 kph)
- 2SM
04:45
Overcast
Fog And Mist
39°F / 4°C 39°F / 4°C 100% 30.09 in
(1019 mb)
SSE 6.9 mph
(SSE 11 kph)
- 2 1/2SM
03:53
Overcast
39°F / 4°C 39°F / 4°C 100% 30.09 in
(1019 mb)
Calm - 7SM
02:53
Overcast
Fog And Mist
39°F / 4°C 37°F / 3°C 93% 30.09 in
(1019 mb)
SE 3.5 mph
(SE 6 kph)
- 6SM
02:27
Overcast
Fog And Mist
39°F / 4°C 37°F / 3°C 93% 30.09 in
(1019 mb)
ESE 4.6 mph
(ESE 7 kph)
- 5SM
01:53
Overcast
Fog And Mist
39°F / 4°C 37°F / 3°C 93% 30.09 in
(1019 mb)
SE 3.5 mph
(SE 6 kph)
- 5SM
01:26
Overcast
Fog And Mist
39°F / 4°C 39°F / 4°C 100% 30.09 in
(1019 mb)
Calm - 3SM
01:17
Overcast
Fog And Mist
39°F / 4°C 39°F / 4°C 100% 30.09 in
(1019 mb)
Calm - 2 1/2SM
00:53
Overcast
Fog And Mist
39°F / 4°C 39°F / 4°C 100% 30.09 in
(1019 mb)
Calm - 2 1/2SM
00:33
Overcast
Fog And Mist
39°F / 4°C 39°F / 4°C 100% 30.09 in
(1019 mb)
Calm - 2 1/2SM
00:24
Overcast
Fog And Mist
39°F / 4°C 39°F / 4°C 100% 30.09 in
(1019 mb)
Calm - 3SM
00:17
Overcast
Fog And Mist
39°F / 4°C 37°F / 3°C 93% 30.09 in
(1019 mb)
Calm - 3SM
00:07
Overcast
Fog And Mist
39°F / 4°C 39°F / 4°C 100% 30.09 in
(1019 mb)
E 3.5 mph
(E 6 kph)
- 2SM
Time Weather Temperature Dewpoint Humidity Pressure Winds Precip Visibility


Weather for websites

WeatherForYou.com, LLC is not responsible for any damages or problems caused by this service. Current weather conditions are obtained from the closest station including government and personal stations which may have varying degrees of accuracy. Weather forecasts are derived from the NOAA NDFD. Like all things, this site belongs to Jesus Christ... He just trusts me to maintain it. If you have any questions or comments email webmaster@weatherforyou.com

Copyright © 2014, WeatherForYou.com LLC. All rights reserved.